カタログに戻る

CZ-6A DEB

運用中SSO
NORAD 54491·DEBRIS·🇨🇳 China

打ち上げ Nov 11, 2022 から Taiyuan Satellite Launch Center

Loading…

次のパス (今後24時間)

TLE

最新Source: Space-Track

元期: Sep 13, 2026, 22:54 UTC

1 54491U 22151HT  26256.95425198  .00000319  00000-0  20219-3 0  9998
2 54491  98.9133 264.0584 0108999  45.6559 315.3479 14.07863669196612

AllMySatでCZ-6A DEBをリアルタイム追跡

Download on the App Store